Weather in Pektubayevo

Russia / Mari El Republic     57°01′39″N   48°23′06″E
temp.,
°C
wind,
m/s
gust,
m/s
humid.,
%
clouds,
%
prec.,
mm/h
press.,
hPa
HPBL,
m
18 may, wed
wed1800:00+8n3595100 2.8 1000315
03:00+7nne61195100 6.4 1000758
06:00+7nne71094100 1.1 1001963
09:00+6n6990100 2.0 1003903
12:00+8n7873100 0.1 10041292
15:00+9nnw577077 0.2 10051048
18:00+8nw477173 0.1 1006588
21:00+6nw357491 0.1 1007108
19 may, thu
thu1900:00+4nnw3682100 0.0 1007132
03:00+4w3485100 0.1 1007176
06:00+5w3481100 0.0 1007313
09:00+5w3485100 0.4 1007720
12:00+5nw578360 0.6 1008780
15:00+6wnw567566 0.8 1008904
18:00+7wnw477369 0.5 1008618
21:00+3nw379212 0.9 1009153
20 may, fri
fri2000:00+1nw349498 0.0 101073
03:000nw35947 0.0 101099
06:00+3nw458698 0.0 1010300
09:00+6nnw567385 0.5 10111030
12:00+7nnw786995 1.6 10111378
15:00+7nnw687097 1.9 10111173
18:00+6n7981100 0.3 1011894
21:00+4n61190100 0.3 1011743
21 may, sat
sat2100:00+3nnw61191100 0.0 1010724
03:00+3nw4891100 0.1 1009636
06:00+3nnw6883100 0.0 1008601
09:00+3nnw6882100 0.1 1007860
12:00+4nw7985100 0.6 10071006
15:00+4nnw7978100 1.4 10071095
18:00+3nnw6109197 0.5 1007809
21:00+1nnw61090100 0.6 1006573
22 may, sun
sun2200:00+1nnw5891100 0.1 1006987
03:00+1nnw51092100 0.1 1005466
06:00+1n51093100 0.1 1006540
09:00+4n6777100 0.1 1006979
12:00+5n7874100 0.2 10071091
15:00+5nne6876100 0.3 10081175
18:00+4n5880100 0.0 1009846
21:00+3n498899 0.0 1009363